Simultaneous Nadir Overpasses (SNOs) Predictions

Prediction of SNOs between GOES-17 and NOAA-20 Satellite Orbit:

Table of predicted SNOs for the next 14.0 days since TLE Epoch: 3/30/2024
Index Date Time (GOES-17) GOES-17 Lat,Lon NOAA-20 Lat,Lon Distance(km) Time Diff (sec)
1 03/31/2024 08:33:46 -0.01,-104.69 0.41,-106.67 225.60 80
2 04/01/2024 08:10:41 -0.00,-104.68 -0.68,-101.73 336.81 80
3 04/02/2024 20:30:00 0.00,-104.66 -0.39,-106.40 197.97 80
4 04/03/2024 20:12:15 -0.00,-104.66 0.71,-101.46 364.66 80
5 04/05/2024 08:31:30 0.01,-104.67 0.33,-106.12 164.39 80
6 04/06/2024 08:08:25 0.02,-104.67 -0.77,-101.18 398.36 80
7 04/07/2024 20:27:44 0.01,-104.65 -0.25,-105.86 136.62 80
8 04/08/2024 20:09:58 0.02,-104.65 0.87,-100.92 425.93 80
9 04/10/2024 08:29:14 -0.03,-104.67 0.19,-105.57 103.20 80
10 04/11/2024 08:06:08 -0.03,-104.67 -0.92,-100.64 459.39 80
11 04/12/2024 20:25:27 0.03,-104.65 -0.11,-105.30 74.83 80
